Time,TemperatureF,DewpointF,PressureIn,WindDirection,WindDirectionDegrees,WindSpeedMPH,WindSpeedGustMPH,Humidity,HourlyPrecipIn,Conditions,Clouds,dailyrainin,SoftwareType,DateUTC
2013-03-29 00:00:00,62.5,58.9,30.19,NE,43,1.0,1.0,88,0.00,,,0.00,Wunderground v.1.15,2013-03-29 05:00:00,
2013-03-29 00:05:00,62.5,58.9,30.19,ESE,113,1.0,1.0,88,0.00,,,0.00,Wunderground v.1.15,2013-03-29 05:05:00,
2013-03-29 00:14:00,62.5,58.9,30.19,ENE,62,0.0,1.0,88,0.00,,,0.00,Wunderground v.1.15,2013-03-29 05:14:00,
2013-03-29 00:20:00,62.4,58.8,30.19,SE,136,0.0,0.0,88,0.00,,,0.00,Wunderground v.1.15,2013-03-29 05:20:00,
2013-03-29 00:29:00,62.2,58.6,30.19,ESE,103,0.0,0.0,88,0.00,,,0.00,Wunderground v.1.15,2013-03-29 05:29:00,
2013-03-29 00:35:00,62.1,58.5,30.19,ESE,103,0.0,0.0,88,0.00,,,0.00,Wunderground v.1.15,2013-03-29 05:35:00,
2013-03-29 00:44:00,61.9,58.6,30.19,SSE,150,0.0,0.0,89,0.00,,,0.00,Wunderground v.1.15,2013-03-29 05:44:00,
2013-03-29 00:55:00,61.6,58.3,30.19,SSE,149,0.0,0.0,89,0.00,,,0.00,Wunderground v.1.15,2013-03-29 05:55:00,
2013-03-29 01:04:00,61.1,57.8,30.19,SSE,149,0.0,0.0,89,0.00,,,0.00,Wunderground v.1.15,2013-03-29 06:04:00,
2013-03-29 01:10:00,60.8,57.5,30.19,SSE,150,0.0,0.0,89,0.00,,,0.00,Wunderground v.1.15,2013-03-29 06:10:00,
2013-03-29 01:19:00,60.3,57.4,30.19,SSE,149,0.0,0.0,90,0.00,,,0.00,Wunderground v.1.15,2013-03-29 06:19:00,
2013-03-29 01:30:00,59.8,57.2,30.19,SSE,150,0.0,0.0,91,0.00,,,0.00,Wunderground v.1.15,2013-03-29 06:30:00,
2013-03-29 01:40:00,59.8,57.5,30.19,SSE,150,0.0,0.0,92,0.00,,,0.00,Wunderground v.1.15,2013-03-29 06:40:00,
2013-03-29 01:49:00,59.7,57.4,30.19,SSE,150,0.0,0.0,92,0.00,,,0.00,Wunderground v.1.15,2013-03-29 06:49:00,
2013-03-29 01:55:00,59.8,57.5,30.19,SSE,150,0.0,0.0,92,0.00,,,0.00,Wunderground v.1.15,2013-03-29 06:55:00,
2013-03-29 02:04:00,59.6,57.3,30.19,SSE,150,0.0,0.0,92,0.00,,,0.00,Wunderground v.1.15,2013-03-29 07:04:00,
2013-03-29 02:15:00,59.7,57.7,30.19,SSE,150,0.0,0.0,93,0.00,,,0.00,Wunderground v.1.15,2013-03-29 07:15:00,
2013-03-29 02:24:00,59.8,57.8,30.19,SSE,150,0.0,0.0,93,0.00,,,0.00,Wunderground v.1.15,2013-03-29 07:24:00,
2013-03-29 02:30:00,59.9,57.9,30.19,SSE,150,0.0,0.0,93,0.00,,,0.00,Wunderground v.1.15,2013-03-29 07:30:00,
2013-03-29 02:39:00,60.0,58.0,30.18,SSE,150,0.0,0.0,93,0.00,,,0.00,Wunderground v.1.15,2013-03-29 07:39:00,
2013-03-29 02:45:00,60.1,58.1,30.19,SW,224,0.0,0.0,93,0.00,,,0.00,Wunderground v.1.15,2013-03-29 07:45:00,
2013-03-29 02:54:00,60.2,58.2,30.18,SW,228,0.0,0.0,93,0.00,,,0.00,Wunderground v.1.15,2013-03-29 07:54:00,
2013-03-29 03:05:00,60.3,58.3,30.17,SW,228,0.0,0.0,93,0.00,,,0.00,Wunderground v.1.15,2013-03-29 08:05:00,
2013-03-29 03:15:00,60.3,58.3,30.17,SW,228,0.0,0.0,93,0.00,,,0.00,Wunderground v.1.15,2013-03-29 08:15:00,
2013-03-29 03:25:00,60.3,58.3,30.17,SE,127,0.0,0.0,93,0.00,,,0.00,Wunderground v.1.15,2013-03-29 08:25:00,
2013-03-29 03:34:00,60.3,58.3,30.17,SE,127,0.0,0.0,93,0.00,,,0.00,Wunderground v.1.15,2013-03-29 08:34:00,
2013-03-29 03:40:00,60.3,58.3,30.17,SE,127,0.0,0.0,93,0.00,,,0.00,Wunderground v.1.15,2013-03-29 08:40:00,
2013-03-29 03:49:00,60.2,58.2,30.16,SE,127,0.0,0.0,93,0.00,,,0.00,Wunderground v.1.15,2013-03-29 08:49:00,
2013-03-29 04:00:00,60.2,58.2,30.16,SE,127,0.0,0.0,93,0.00,,,0.00,Wunderground v.1.15,2013-03-29 09:00:00,
2013-03-29 04:09:00,60.2,58.5,30.16,West,274,0.0,0.0,94,0.00,,,0.00,Wunderground v.1.15,2013-03-29 09:09:00,
2013-03-29 04:15:00,60.1,58.1,30.16,West,274,0.0,0.0,93,0.00,,,0.00,Wunderground v.1.15,2013-03-29 09:15:00,
2013-03-29 04:24:00,60.1,58.4,30.16,West,274,0.0,0.0,94,0.00,,,0.00,Wunderground v.1.15,2013-03-29 09:24:00,
2013-03-29 04:30:00,60.1,58.4,30.15,West,274,0.0,0.0,94,0.00,,,0.00,Wunderground v.1.15,2013-03-29 09:30:00,
2013-03-29 04:39:00,59.9,58.2,30.15,West,274,0.0,0.0,94,0.00,,,0.00,Wunderground v.1.15,2013-03-29 09:39:00,
2013-03-29 04:50:00,60.0,58.3,30.15,West,274,0.0,0.0,94,0.00,,,0.00,Wunderground v.1.15,2013-03-29 09:50:00,
2013-03-29 04:59:00,60.0,58.3,30.15,West,274,0.0,0.0,94,0.00,,,0.00,Wunderground v.1.15,2013-03-29 09:59:00,
2013-03-29 05:10:00,60.0,58.3,30.15,West,274,0.0,0.0,94,0.00,,,0.00,Wunderground v.1.15,2013-03-29 10:10:00,
2013-03-29 05:20:00,60.1,58.4,30.15,West,274,0.0,0.0,94,0.00,,,0.00,Wunderground v.1.15,2013-03-29 10:20:00,
2013-03-29 05:29:00,60.2,58.5,30.15,West,274,0.0,0.0,94,0.00,,,0.00,Wunderground v.1.15,2013-03-29 10:29:00,
2013-03-29 05:40:00,60.2,58.5,30.15,West,274,0.0,0.0,94,0.00,,,0.00,Wunderground v.1.15,2013-03-29 10:40:00,
2013-03-29 05:49:00,60.2,58.5,30.15,West,274,0.0,0.0,94,0.00,,,0.00,Wunderground v.1.15,2013-03-29 10:49:00,
2013-03-29 06:00:00,60.0,58.3,30.15,SE,139,0.0,0.0,94,0.00,,,0.00,Wunderground v.1.15,2013-03-29 11:00:00,
2013-03-29 06:09:00,59.9,58.2,30.15,SE,139,0.0,0.0,94,0.00,,,0.00,Wunderground v.1.15,2013-03-29 11:09:00,
2013-03-29 06:15:00,59.8,58.1,30.15,SE,138,0.0,0.0,94,0.00,,,0.00,Wunderground v.1.15,2013-03-29 11:15:00,
2013-03-29 06:24:00,59.7,58.3,30.15,ESE,115,0.0,0.0,95,0.00,,,0.00,Wunderground v.1.15,2013-03-29 11:24:00,
2013-03-29 06:30:00,59.6,58.2,30.15,ESE,116,0.0,0.0,95,0.00,,,0.00,Wunderground v.1.15,2013-03-29 11:30:00,
2013-03-29 06:39:00,59.5,58.1,30.15,SE,132,0.0,0.0,95,0.00,,,0.00,Wunderground v.1.15,2013-03-29 11:39:00,
2013-03-29 06:50:00,59.0,57.6,30.16,SE,132,0.0,0.0,95,0.00,,,0.00,Wunderground v.1.15,2013-03-29 11:50:00,
2013-03-29 06:59:00,58.5,57.1,30.16,SE,133,0.0,0.0,95,0.00,,,0.00,Wunderground v.1.15,2013-03-29 11:59:00,
2013-03-29 07:05:00,58.2,56.8,30.16,SE,132,0.0,0.0,95,0.00,,,0.00,Wunderground v.1.15,2013-03-29 12:05:00,
2013-03-29 07:14:00,57.9,56.5,30.17,SE,133,0.0,0.0,95,0.00,,,0.00,Wunderground v.1.15,2013-03-29 12:14:00,
2013-03-29 07:20:00,57.7,56.3,30.17,SE,132,0.0,0.0,95,0.00,,,0.00,Wunderground v.1.15,2013-03-29 12:20:00,
2013-03-29 07:29:00,57.5,56.1,30.17,SE,132,0.0,0.0,95,0.00,,,0.00,Wunderground v.1.15,2013-03-29 12:29:00,
2013-03-29 07:40:00,57.2,56.1,30.17,SE,132,0.0,0.0,96,0.00,,,0.00,Wunderground v.1.15,2013-03-29 12:40:00,
2013-03-29 07:49:00,57.1,56.0,30.17,SE,132,0.0,0.0,96,0.00,,,0.00,Wunderground v.1.15,2013-03-29 12:49:00,
2013-03-29 07:55:00,57.1,56.0,30.17,SE,132,0.0,0.0,96,0.00,,,0.00,Wunderground v.1.15,2013-03-29 12:55:00,
2013-03-29 08:04:00,57.5,56.4,30.17,SE,133,0.0,0.0,96,0.00,,,0.00,Wunderground v.1.15,2013-03-29 13:04:00,
2013-03-29 08:15:00,58.3,57.5,30.17,SE,132,0.0,0.0,97,0.00,,,0.00,Wunderground v.1.15,2013-03-29 13:15:00,
2013-03-29 08:24:00,58.9,58.1,30.18,SE,141,0.0,0.0,97,0.00,,,0.00,Wunderground v.1.15,2013-03-29 13:24:00,
2013-03-29 08:35:00,59.3,58.4,30.18,SE,139,0.0,0.0,97,0.00,,,0.00,Wunderground v.1.15,2013-03-29 13:35:00,
2013-03-29 08:44:00,59.5,58.6,30.18,SE,139,0.0,0.0,97,0.00,,,0.00,Wunderground v.1.15,2013-03-29 13:44:00,
2013-03-29 08:50:00,59.6,58.7,30.18,SE,134,0.0,0.0,97,0.00,,,0.00,Wunderground v.1.15,2013-03-29 13:50:00,
2013-03-29 08:59:00,60.0,59.1,30.18,SE,131,0.0,0.0,97,0.00,,,0.00,Wunderground v.1.15,2013-03-29 13:59:00,
2013-03-29 09:10:00,60.5,59.6,30.18,SE,146,0.0,0.0,97,0.00,,,0.00,Wunderground v.1.15,2013-03-29 14:10:00,
2013-03-29 09:19:00,61.1,60.2,30.18,WNW,291,0.0,0.0,97,0.00,,,0.00,Wunderground v.1.15,2013-03-29 14:19:00,
2013-03-29 09:30:00,61.8,60.6,30.18,SSW,203,0.0,0.0,96,0.00,,,0.00,Wunderground v.1.15,2013-03-29 14:30:00,
2013-03-29 09:39:00,62.7,60.9,30.18,SSW,205,0.0,0.0,94,0.00,,,0.00,Wunderground v.1.15,2013-03-29 14:39:00,
2013-03-29 09:45:00,63.3,61.2,30.18,NNE,25,1.0,2.0,93,0.00,,,0.00,Wunderground v.1.15,2013-03-29 14:45:00,
2013-03-29 09:54:00,64.5,61.8,30.18,NW,309,1.0,1.0,91,0.00,,,0.00,Wunderground v.1.15,2013-03-29 14:54:00,
2013-03-29 10:00:00,65.2,61.9,30.18,SSW,211,1.0,1.0,89,0.00,,,0.00,Wunderground v.1.15,2013-03-29 15:00:00,
2013-03-29 10:09:00,66.2,61.9,30.19,West,272,1.0,1.0,86,0.00,,,0.00,Wunderground v.1.15,2013-03-29 15:09:00,
2013-03-29 10:20:00,66.9,62.2,30.18,South,183,1.0,3.0,85,0.00,,,0.00,Wunderground v.1.15,2013-03-29 15:20:00,
2013-03-29 10:29:00,67.6,62.3,30.19,East,87,1.0,1.0,83,0.00,,,0.00,Wunderground v.1.15,2013-03-29 15:29:00,
2013-03-29 10:35:00,68.1,62.4,30.19,SSW,198,1.0,4.0,82,0.00,,,0.00,Wunderground v.1.15,2013-03-29 15:35:00,
2013-03-29 10:44:00,68.8,62.4,30.19,ESE,102,1.0,2.0,80,0.00,,,0.00,Wunderground v.1.15,2013-03-29 15:44:00,
2013-03-29 10:50:00,69.0,62.2,30.18,ESE,122,1.0,1.0,79,0.00,,,0.00,Wunderground v.1.15,2013-03-29 15:50:00,
2013-03-29 10:59:00,69.3,61.8,30.19,East,94,1.0,3.0,77,0.00,,,0.00,Wunderground v.1.15,2013-03-29 15:59:00,
2013-03-29 11:10:00,69.2,61.7,30.19,SSW,205,2.0,2.0,77,0.00,,,0.00,Wunderground v.1.15,2013-03-29 16:10:00,
2013-03-29 11:19:00,70.5,61.8,30.19,ESE,117,2.0,2.0,74,0.00,,,0.00,Wunderground v.1.15,2013-03-29 16:19:00,
2013-03-29 11:25:00,71.2,61.3,30.18,ESE,122,2.0,2.0,71,0.00,,,0.00,Wunderground v.1.15,2013-03-29 16:25:00,
2013-03-29 11:34:00,72.3,61.6,30.18,ESE,107,2.0,4.0,69,0.00,,,0.00,Wunderground v.1.15,2013-03-29 16:34:00,
2013-03-29 11:45:00,73.2,60.7,30.18,ESE,104,3.0,7.0,65,0.00,,,0.00,Wunderground v.1.15,2013-03-29 16:45:00,
2013-03-29 11:54:00,73.7,61.2,30.18,South,184,2.0,3.0,65,0.00,,,0.00,Wunderground v.1.15,2013-03-29 16:54:00,
2013-03-29 12:00:00,73.9,61.8,30.18,NW,316,2.0,7.0,66,0.00,,,0.00,Wunderground v.1.15,2013-03-29 17:00:00,
2013-03-29 12:09:00,74.9,61.0,30.18,SSW,195,2.0,2.0,62,0.00,,,0.00,Wunderground v.1.15,2013-03-29 17:09:00,
2013-03-29 12:20:00,75.5,60.6,30.17,South,177,2.0,2.0,60,0.00,,,0.00,Wunderground v.1.15,2013-03-29 17:20:00,
2013-03-29 12:29:00,75.6,61.2,30.17,SE,136,2.0,2.0,61,0.00,,,0.00,Wunderground v.1.15,2013-03-29 17:29:00,
2013-03-29 12:35:00,75.7,60.8,30.16,East,91,2.0,2.0,60,0.00,,,0.00,Wunderground v.1.15,2013-03-29 17:35:00,
2013-03-29 12:44:00,76.7,61.8,30.16,West,278,1.0,1.0,60,0.00,,,0.00,Wunderground v.1.15,2013-03-29 17:44:00,
2013-03-29 12:50:00,76.9,61.5,30.16,WNW,285,1.0,1.0,59,0.00,,,0.00,Wunderground v.1.15,2013-03-29 17:50:00,
2013-03-29 12:59:00,77.0,61.1,30.16,SE,132,1.0,1.0,58,0.00,,,0.00,Wunderground v.1.15,2013-03-29 17:59:00,
2013-03-29 13:10:00,78.1,60.6,30.15,West,276,1.0,4.0,55,0.00,,,0.00,Wunderground v.1.15,2013-03-29 18:10:00,
2013-03-29 13:19:00,79.3,60.7,30.14,ESE,117,2.0,2.0,53,0.00,,,0.00,Wunderground v.1.15,2013-03-29 18:19:00,
2013-03-29 13:30:00,79.7,61.1,30.14,NNW,336,2.0,2.0,53,0.00,,,0.00,Wunderground v.1.15,2013-03-29 18:30:00,
2013-03-29 13:39:00,79.7,60.0,30.13,East,79,2.0,2.0,51,0.00,,,0.00,Wunderground v.1.15,2013-03-29 18:39:00,
2013-03-29 13:45:00,79.6,60.4,30.13,SE,124,2.0,3.0,52,0.00,,,0.00,Wunderground v.1.15,2013-03-29 18:45:00,
2013-03-29 13:54:00,79.6,59.9,30.13,WSW,240,2.0,2.0,51,0.00,,,0.00,Wunderground v.1.15,2013-03-29 18:54:00,
2013-03-29 14:05:00,79.1,59.4,30.13,SE,145,2.0,2.0,51,0.00,,,0.00,Wunderground v.1.15,2013-03-29 19:05:00,
2013-03-29 14:14:00,79.0,59.9,30.12,NNW,338,2.0,3.0,52,0.00,,,0.00,Wunderground v.1.15,2013-03-29 19:14:00,
2013-03-29 14:20:00,79.0,59.3,30.12,East,101,2.0,2.0,51,0.00,,,0.00,Wunderground v.1.15,2013-03-29 19:20:00,
2013-03-29 14:29:00,79.0,59.3,30.11,WSW,248,1.0,1.0,51,0.00,,,0.00,Wunderground v.1.15,2013-03-29 19:29:00,
2013-03-29 14:40:00,78.3,59.2,30.11,WNW,302,1.0,3.0,52,0.00,,,0.00,Wunderground v.1.15,2013-03-29 19:40:00,
2013-03-29 14:49:00,77.4,58.4,30.11,South,186,1.0,1.0,52,0.00,,,0.00,Wunderground v.1.15,2013-03-29 19:49:00,
2013-03-29 14:55:00,77.3,58.3,30.11,ESE,117,1.0,1.0,52,0.00,,,0.00,Wunderground v.1.15,2013-03-29 19:55:00,
2013-03-29 15:04:00,77.2,58.7,30.11,ENE,75,1.0,3.0,53,0.00,,,0.00,Wunderground v.1.15,2013-03-29 20:04:00,
2013-03-29 15:15:00,77.2,58.2,30.10,SW,228,1.0,1.0,52,0.00,,,0.00,Wunderground v.1.15,2013-03-29 20:15:00,
2013-03-29 15:24:00,77.3,58.8,30.09,SW,217,1.0,1.0,53,0.00,,,0.00,Wunderground v.1.15,2013-03-29 20:24:00,
2013-03-29 15:30:00,77.5,58.5,30.09,SE,128,1.0,1.0,52,0.00,,,0.00,Wunderground v.1.15,2013-03-29 20:30:00,
2013-03-29 15:39:00,78.2,59.1,30.09,ESE,113,1.0,1.0,52,0.00,,,0.00,Wunderground v.1.15,2013-03-29 20:39:00,
2013-03-29 15:50:00,78.1,59.0,30.09,ESE,115,2.0,3.0,52,0.00,,,0.00,Wunderground v.1.15,2013-03-29 20:50:00,
2013-03-29 15:59:00,77.6,59.1,30.09,NNE,12,1.0,1.0,53,0.00,,,0.00,Wunderground v.1.15,2013-03-29 20:59:00,
2013-03-29 16:05:00,77.5,59.0,30.08,SSW,210,1.0,2.0,53,0.00,,,0.00,Wunderground v.1.15,2013-03-29 21:05:00,
2013-03-29 16:14:00,77.2,59.3,30.08,ESE,114,1.0,1.0,54,0.00,,,0.00,Wunderground v.1.15,2013-03-29 21:14:00,
2013-03-29 16:20:00,77.4,58.9,30.08,SE,124,1.0,1.0,53,0.00,,,0.00,Wunderground v.1.15,2013-03-29 21:20:00,
2013-03-29 16:29:00,77.7,59.2,30.08,South,186,2.0,2.0,53,0.00,,,0.00,Wunderground v.1.15,2013-03-29 21:29:00,
2013-03-29 16:40:00,77.4,59.5,30.07,ENE,65,1.0,2.0,54,0.00,,,0.00,Wunderground v.1.15,2013-03-29 21:40:00,
2013-03-29 16:49:00,77.3,59.9,30.07,East,83,1.0,1.0,55,0.00,,,0.00,Wunderground v.1.15,2013-03-29 21:49:00,
2013-03-29 16:59:00,77.9,60.4,30.06,SE,139,1.0,1.0,55,0.00,,,0.00,Wunderground v.1.15,2013-03-29 21:59:00,
2013-03-29 17:10:00,78.1,60.1,30.07,SSE,147,1.0,1.0,54,0.00,,,0.00,Wunderground v.1.15,2013-03-29 22:10:00,
2013-03-29 17:19:00,78.0,60.5,30.06,SSE,149,1.0,1.0,55,0.00,,,0.00,Wunderground v.1.15,2013-03-29 22:19:00,
2013-03-29 17:30:00,78.1,60.1,30.06,SE,139,1.0,1.0,54,0.00,,,0.00,Wunderground v.1.15,2013-03-29 22:30:00,
2013-03-29 17:39:00,77.9,59.9,30.06,SE,131,1.0,3.0,54,0.00,,,0.00,Wunderground v.1.15,2013-03-29 22:39:00,
2013-03-29 17:50:00,77.9,60.4,30.06,SE,136,0.0,1.0,55,0.00,,,0.00,Wunderground v.1.15,2013-03-29 22:50:00,
2013-03-29 17:59:00,77.7,59.7,30.07,ESE,105,1.0,1.0,54,0.00,,,0.00,Wunderground v.1.15,2013-03-29 22:59:00,
2013-03-29 18:05:00,77.5,60.1,30.07,East,85,1.0,1.0,55,0.00,,,0.00,Wunderground v.1.15,2013-03-29 23:05:00,
2013-03-29 18:14:00,77.1,60.2,30.07,East,79,0.0,2.0,56,0.00,,,0.00,Wunderground v.1.15,2013-03-29 23:14:00,
2013-03-29 18:25:00,76.7,59.8,30.07,ESE,122,1.0,1.0,56,0.00,,,0.00,Wunderground v.1.15,2013-03-29 23:25:00,
2013-03-29 18:34:00,76.5,60.1,30.07,ESE,104,0.0,1.0,57,0.00,,,0.00,Wunderground v.1.15,2013-03-29 23:34:00,
2013-03-29 18:40:00,76.4,60.0,30.07,SE,143,0.0,0.0,57,0.00,,,0.00,Wunderground v.1.15,2013-03-29 23:40:00,
2013-03-29 18:49:00,76.2,59.9,30.06,East,96,0.0,1.0,57,0.00,,,0.00,Wunderground v.1.15,2013-03-29 23:49:00,
2013-03-29 18:55:00,76.1,59.8,30.06,ESE,104,1.0,1.0,57,0.00,,,0.00,Wunderground v.1.15,2013-03-29 23:55:00,
2013-03-29 19:04:00,75.8,59.5,30.06,ESE,103,1.0,2.0,57,0.00,,,0.00,Wunderground v.1.15,2013-03-30 00:04:00,
2013-03-29 19:15:00,75.3,59.5,30.05,ESE,114,1.0,1.0,58,0.00,,,0.00,Wunderground v.1.15,2013-03-30 00:15:00,
2013-03-29 19:24:00,74.7,59.4,30.06,ESE,120,1.0,3.0,59,0.00,,,0.00,Wunderground v.1.15,2013-03-30 00:24:00,
2013-03-29 19:30:00,74.5,59.7,30.06,SE,132,1.0,1.0,60,0.00,,,0.00,Wunderground v.1.15,2013-03-30 00:30:00,
2013-03-29 19:39:00,74.1,59.8,30.06,ESE,113,1.0,1.0,61,0.00,,,0.00,Wunderground v.1.15,2013-03-30 00:39:00,
2013-03-29 19:45:00,73.8,60.0,30.06,SSE,148,1.0,1.0,62,0.00,,,0.00,Wunderground v.1.15,2013-03-30 00:45:00,
2013-03-29 19:54:00,73.4,60.0,30.07,NNE,29,1.0,3.0,63,0.00,,,0.00,Wunderground v.1.15,2013-03-30 00:54:00,
2013-03-29 20:05:00,73.0,60.1,30.07,ESE,117,0.0,1.0,64,0.00,,,0.00,Wunderground v.1.15,2013-03-30 01:05:00,
2013-03-29 20:15:00,72.6,60.2,30.07,ESE,122,1.0,1.0,65,0.00,,,0.00,Wunderground v.1.15,2013-03-30 01:15:00,
2013-03-29 20:25:00,72.3,59.9,30.08,NE,37,0.0,1.0,65,0.00,,,0.00,Wunderground v.1.15,2013-03-30 01:25:00,
2013-03-29 20:34:00,72.2,60.2,30.08,SE,127,1.0,1.0,66,0.00,,,0.00,Wunderground v.1.15,2013-03-30 01:34:00,
2013-03-29 20:45:00,72.0,60.4,30.08,NE,47,1.0,1.0,67,0.00,,,0.00,Wunderground v.1.15,2013-03-30 01:45:00,
2013-03-29 20:54:00,71.6,60.5,30.08,SE,130,1.0,1.0,68,0.00,,,0.00,Wunderground v.1.15,2013-03-30 01:54:00,
2013-03-29 21:05:00,71.4,60.7,30.08,SE,145,1.0,1.0,69,0.00,,,0.00,Wunderground v.1.15,2013-03-30 02:05:00,
2013-03-29 21:15:00,71.1,60.4,30.08,SE,126,1.0,1.0,69,0.00,,,0.00,Wunderground v.1.15,2013-03-30 02:15:00,
2013-03-29 21:24:00,70.9,60.6,30.08,SE,135,2.0,2.0,70,0.00,,,0.00,Wunderground v.1.15,2013-03-30 02:24:00,
2013-03-29 21:35:00,70.7,60.8,30.08,SE,145,1.0,1.0,71,0.00,,,0.00,Wunderground v.1.15,2013-03-30 02:35:00,
2013-03-29 21:45:00,70.3,60.8,30.08,SSW,200,1.0,1.0,72,0.00,,,0.00,Wunderground v.1.15,2013-03-30 02:45:00,
2013-03-29 21:54:00,70.1,61.0,30.09,SSW,195,2.0,4.0,73,0.00,,,0.00,Wunderground v.1.15,2013-03-30 02:54:00,
2013-03-29 22:05:00,69.8,61.1,30.09,SE,127,1.0,2.0,74,0.00,,,0.00,Wunderground v.1.15,2013-03-30 03:05:00,
2013-03-29 22:14:00,69.6,60.9,30.09,SE,132,1.0,2.0,74,0.00,,,0.00,Wunderground v.1.15,2013-03-30 03:14:00,
2013-03-29 22:20:00,69.4,60.8,30.09,ESE,122,2.0,2.0,74,0.00,,,0.00,Wunderground v.1.15,2013-03-30 03:20:00,
2013-03-29 22:29:00,69.2,60.9,30.10,SE,131,1.0,1.0,75,0.00,,,0.00,Wunderground v.1.15,2013-03-30 03:29:00,
2013-03-29 22:40:00,69.0,61.1,30.10,NE,56,2.0,2.0,76,0.00,,,0.00,Wunderground v.1.15,2013-03-30 03:40:00,
2013-03-29 22:49:00,68.7,61.6,30.10,South,176,2.0,2.0,78,0.00,,,0.00,Wunderground v.1.15,2013-03-30 03:49:00,
2013-03-29 22:55:00,68.6,61.5,30.11,NNW,344,1.0,2.0,78,0.00,,,0.00,Wunderground v.1.15,2013-03-30 03:55:00,
2013-03-29 23:04:00,68.3,61.5,30.10,East,82,2.0,2.0,79,0.00,,,0.00,Wunderground v.1.15,2013-03-30 04:04:00,
2013-03-29 23:10:00,68.2,61.8,30.11,SE,132,2.0,2.0,80,0.00,,,0.00,Wunderground v.1.15,2013-03-30 04:10:00,
2013-03-29 23:19:00,67.9,61.9,30.11,East,101,1.0,2.0,81,0.00,,,0.00,Wunderground v.1.15,2013-03-30 04:19:00,
2013-03-29 23:24:00,67.8,62.1,30.11,SSE,158,1.0,2.0,82,0.00,,,0.00,Wunderground v.1.15,2013-03-30 04:24:00,
2013-03-29 23:30:00,67.7,62.0,30.11,ENE,70,1.0,1.0,82,0.00,,,0.00,Wunderground v.1.15,2013-03-30 04:30:00,
2013-03-29 23:39:00,67.4,62.1,30.11,South,172,1.0,1.0,83,0.00,,,0.00,Wunderground v.1.15,2013-03-30 04:39:00,
2013-03-29 23:44:00,67.3,62.0,30.11,WNW,302,1.0,1.0,83,0.00,,,0.00,Wunderground v.1.15,2013-03-30 04:44:00,
2013-03-29 23:50:00,67.2,62.2,30.11,SSE,158,1.0,1.0,84,0.00,,,0.00,Wunderground v.1.15,2013-03-30 04:50:00,